Showing default

SATCOM K2, 16276

Orbit data source: Space-Track

SATCOM K2, 16276 is a payload satellite owned by RCA Americom (US) in GEO that was launched on Wed, 27 Nov 1985 UTC via an SPACE SHUTTLE launch vehicle from the Air Force Eastern Test Range (AFETR). Payload-class satellites include a variety of spacecraft equipped with specific instruments for various scientific and technological missions. These include communications satellites like Starlink; space stations such as the ISS; scientific satellites like the Hubble; Earth observation satellites from companies like Planet Labs, Umbra, and HawkEye 360; GPS; miniature CubeSats for education and research; and military/defense satellites.

Loading next visibility...
Identifier
16276, 1985-109D
Orbit
GEO
Country
Flag of USUS
Related business
Manufacturer
RCA/East Windsor
Mission
Commercial Communications
Bus & Motor
AS4000, STAR 37XFP
Mass
1,925 kg wet, ~850 kg dry
Launch date (UTC)
1985-11-27 (40 years ago)
Launch vehicle
SPACE SHUTTLE
Launch site
Air Force Eastern Test Range (AFETR)
Object type
Payload
Rocket body
Debris
Shape & HBR
Hex Poly + 2 Pan, 10.0 m
Radar Cross Section
10.734 m², Large (>1 m²)

Expand to show TLE details & history
Last TLE update: 1 day ago

TLE from 1 day ago
0 SATCOM K2
1 16276U 85109D   25258.47767757  .00000052  00000-0  00000-0 0  9994
2 16276  14.7671 354.4652 0012778 248.1889 131.9737  0.99609955122866
Epoch: 2025-09-15T11:27Z
TLE epoch observation values (Epoch: 2025-09-15T11:27:51.342Z)
Latitude
5.06275°
Longitude
-152.53732°
Altitude
36,008.393 km
Speed
3.065 km/s
True Right ascension
00h 56m 26s
True Declination
5° 03' 28"
Sunlit
Object was in daylight at epoch
Visualization orbit readout
Latitude
Unknown
Longitude
Unknown
Altitude
Unknown
Speed
Unknown
Apparent Right ascension
Unknown
Apparent Declination
Unknown
Sunlit
N/A
Visualization observer readout
Local Sidereal Time
13:58:43
Azimuth
Unknown
Elevation
Unknown
Doppler factor
Unknown
Orbital elements
Apogee altitude
36,028.239 km
Perigee altitude
35,920.003 km
Semi-major axis
42,352.258 km
Eccentricity
0.00128
Inclination
14.7671°
RAAN
354.4652°
Arg. of periapsis
248.1889°
True anomaly
132.08244°
Mean anomaly
131.9737°
Eccentric anomaly
132.02808°
Mean motion
0.24902 °/min
Orbital period
1,445.69 mins
BSTAR
0
Loading maneuver chart data...
Computing Atmospheric mass density...
Loading historical data...
Loading historical data...
Loading historical data...
Loading historical data...
Loading historical data...
Loading historical data...
Loading historical data...

Documentation

Showing up to 5 results
|